Miscellaneous Local Product
Issued by NWS North Platte, NE

Home | Current Version | Previous Version | Text Only | Print | Product List | Glossary On
Versions: 1 2 3 4 5 6 7 8 9 10 11 12 13 14 15 16 17 18 19 20 21 22 23 24 25 26 27 28 29 30 31 32 33 34 35 36 37 38 39 40 41 42 43 44 45 46 47 48 49 50
964
AXUS43 KLBF 040010
MISLBF


WESTERN AND NORTH CENTRAL NEBRASKA HOURLY WEATHER ROUNDUP
NATIONAL WEATHER SERVICE NORTH PLATTE NE
600 PM CST SAT DEC 03 2016

NOTE: "FAIR" INDICATES FEW OR NO CLOUDS BELOW 12,000 FEET WITH NO
SIGNIFICANT WEATHER AND/OR OBSTRUCTIONS TO VISIBILITY.

NOTE: STATIONS NOT REPORTING VARIABLES SUCH AS SKY/WEATHER OR
PRESSURE ARE PROVIDED BY RAWS AND APRS NETWORKS AND ARE NOT UNDER
NATIONAL WEATHER SERVICE QUALITY CONTROL.

...OBSERVATIONS IN AND NEAR THE EASTERN PANHANDLE OF NEBRASKA...

CITY           SKY/WX    TMP DP  RH WIND       PRES   REMARKS
PINE RIDGE     CLOUDY    31  22  69 S7        29.93S WCI  24
CHADRON        CLOUDY    33  15  47 SW6       29.95S WCI  28
ALLIANCE       CLOUDY    37  20  50 N12       29.95R WCI  29
SIDNEY         CLEAR     32  13  45 W12       29.97R WCI  23
$$

...OBSERVATIONS IN NORTHERN NEBRASKA AND FAR SOUTHERN SOUTH DAKOTA...

CITY           SKY/WX    TMP DP  RH WIND       PRES   REMARKS
WINNER         FAIR      36  23  59 W5        29.92R WCI  32
VALENTINE      CLEAR     31  16  54 W6        29.93R WCI  25
THEDFORD       PTCLDY    40  15  35 SW7       29.95R WCI  35
AINSWORTH      PTCLDY    36  16  45 W15       29.92R WCI  26
O`NEILL        CLOUDY    37  32  82 S16G23    29.99F WCI  27
ORD            CLOUDY    34  29  82 S10       30.01F WCI  26
BROKEN BOW     CLOUDY    35  32  88 S15G24    30.00S WCI  25
VALENTINE NWR    N/A     40  12  31 W9G16       N/A  WCI  34
BUTTE            N/A     35  31  84 SE15G23     N/A  WCI  25
HALSEY           N/A     41  24  51 S6G15       N/A
CHAMBERS         N/A     36  31  82 S6          N/A  WCI  31
EWING            N/A     35  32  90 S9          N/A  WCI  28
$$

...OBSERVATIONS IN SOUTHWEST NEBRASKA AND FAR NORTHEAST COLORADO...

CITY           SKY/WX    TMP DP  RH WIND       PRES   REMARKS
HOLYOKE        FAIR      37  18  44 W6        29.97R WCI  33
IMPERIAL       CLOUDY    39  26  59 S7        29.97R WCI  34
OGALLALA       PTCLDY    37  13  38 CALM      29.97R
NORTH PLATTE   MOCLDY    37  30  75 S10       29.97R WCI  30
MCCOOK         CLOUDY    35  31  85 SE7       30.02R WCI  29
LEXINGTON      CLOUDY    33  31  91 S9        30.04R WCI  26
STAPLETON        N/A     35  29  78 CALM        N/A
GOTHENBURG       N/A     35  31  87 SE7         N/A  WCI  29
CALLAWAY         N/A     33  30  90 S15         N/A  WCI  23
$$

...OBSERVATIONS IN CENTRAL LINCOLN COUNTY AREA...

CITY           SKY/WX    TMP DP  RH WIND       PRES   REMARKS
N.P. AIRPORT   MOCLDY    37  30  75 S10       29.97R WCI  30
N.P. DOWNTOWN    N/A     38  31  74 S5G12       N/A  WCI  34
N.P. SOUTHEAST   N/A     37  30  77 S6          N/A  WCI  32
N.P. HILLCREST   N/A     37  31  80 S7          N/A  WCI  31
$$

...SOME OBSERVATIONS FROM AROUND THE REGION...

CITY           SKY/WX    TMP DP  RH WIND       PRES   REMARKS
LARAMIE        CLOUDY    18   6  59 SW7       29.97R WCI   9
CHEYENNE       CLOUDY    29  10  45 N8G18     29.97R WCI  21
DENVER         CLOUDY    31  19  61 NE6       29.98R WCI  25
AKRON          CLOUDY    29  17  61 W9        29.97R WCI  20
SCOTTSBLUFF    CLOUDY    37  13  37 W14       29.98R WCI  28
RAPID CITY     CLOUDY    36  22  56 CALM      29.91R
BISMARCK       CLOUDY    26  24  92 CALM      29.87S
PIERRE         CLEAR     32  23  69 W10       29.91R WCI  24
SIOUX FALLS    LGT RAIN  35  34  96 S13G22    30.07F WCI  26
OMAHA          LGT SNOW  34  30  85 SE6       30.15F VSB 1   WCI  29
GRAND ISLAND   CLOUDY    32  32 100 S7        30.08S FOG     WCI  26
KANSAS CITY    CLOUDY    45  29  53 E8        30.13F
WICHITA        DRIZZLE   43  39  86 SE6       30.09S
OKLAHOMA CITY  LGT RAIN  44  43  96 E7        30.05S FOG
DALLAS         DRIZZLE   49  46  90 NE12      29.99R FOG
AMARILLO       CLOUDY    39  38  96 CALM      29.99S
DODGE CITY     LGT RAIN  38  38 100 S8        30.02F FOG     WCI  32
HAYS           LGT RAIN  33  32  96 NE3       30.06S FOG
GOODLAND       CLEAR     30  24  78 S7        29.97S WCI  23
$$




USA.gov is the U.S. government's official web portal to all federal, state and local government web resources and services.